K8JWL-13 Weather Reports


Display with metric or nautical units.
time (UTC)temp
F
wind
direction
speed
MPH
gust
MPH
rain 1hr
in
rain 24hr
in
rain mn
in
humidity
%
barometer
mb
20260509164750 66 117 4.0 0.0 158.85 0.00 0.03 67 1008.7
20260509164252 65 301 5.0 0.0 158.85 0.00 0.03 65 1008.8
20260509163750 65 174 7.0 0.0 158.85 0.00 0.03 65 1008.7
20260509163251 65 270 5.0 0.0 158.85 0.00 0.03 67 1008.8
20260509162751 65 232 12.0 0.0 158.85 0.00 0.03 67 1008.8
20260509162250 65 181 7.0 0.0 158.85 0.00 0.03 68 1008.8
20260509161250 64 293 5.0 0.0 158.85 0.00 0.03 68 1008.7
20260509160750 64 287 2.0 0.0 158.85 0.00 0.03 72 1008.6
20260509160250 64 132 3.0 0.0 158.85 0.00 0.03 72 1008.6
20260509155751 64 167 8.0 0.0 158.85 0.00 0.03 72 1008.7
20260509155250 63 309 3.0 0.0 158.85 0.00 0.03 71 1008.7
20260509154751 63 259 3.0 0.0 158.85 0.00 0.03 72 1008.7
20260509154250 63 274 3.0 0.0 158.85 0.00 0.03 71 1008.6
20260509153750 63 309 3.0 0.0 158.85 0.00 0.03 72 1008.6
20260509153251 63 159 1.0 0.0 158.85 0.00 0.03 72 1008.6
20260509152250 63 325 7.0 0.0 158.85 0.00 0.03 73 1008.5
20260509151751 62 203 1.0 0.0 158.85 0.00 0.03 73 1008.5
20260509151325 62 294 3.0 0.0 158.85 0.00 0.03 74 1008.6
20260509151250 62 301 6.0 0.0 158.85 0.00 0.03 73 1008.6
20260509150749 62 294 3.0 0.0 158.85 0.00 0.03 74 1008.6
20260509150249 62 246 3.0 0.0 158.85 0.00 0.03 74 1008.6
20260509150006 62 259 5.0 0.0 158.85 0.00 0.03 75 1008.6
20260509145750 62 259 5.0 0.0 158.85 0.00 0.03 75 1008.6
20260509145744 62 158 2.0 0.0 158.85 0.00 0.03 74 1008.4
20260509145250 62 158 2.0 0.0 158.85 0.00 0.03 74 1008.4
20260509145151 62 245 2.0 0.0 158.85 0.00 0.03 75 1008.3
20260509144749 62 297 3.0 0.0 158.85 0.00 0.03 75 1008.5
20260509144250 62 245 2.0 0.0 158.85 0.00 0.03 75 1008.3
20260509143951 61 150 6.0 0.0 158.85 0.00 0.03 77 1008.3
20260509143750 61 150 6.0 0.0 158.85 0.00 0.03 77 1008.3
20260509143551 61 264 5.0 0.0 158.85 0.00 0.03 79 1008.2
20260509143250 61 264 5.0 0.0 158.85 0.00 0.03 79 1008.2
20260509142750 61 262 4.0 0.0 158.85 0.00 0.03 80 1008.2
20260509141750 60 301 3.0 0.0 158.85 0.00 0.03 81 1008.2
20260509141741 59 201 1.0 0.0 158.85 0.00 0.03 83 1008.4
20260509140750 59 322 2.0 0.0 158.85 0.00 0.03 82 1008.3
20260509140249 59 201 1.0 0.0 158.85 0.00 0.03 83 1008.4
20260509135751 58 301 2.0 0.0 158.85 0.00 0.03 86 1008.5
20260509135249 59 326 6.0 0.0 158.85 0.00 0.03 85 1008.5
20260509135104 58 262 1.0 0.0 158.85 0.00 0.03 86 1008.7
20260509134749 58 297 5.0 0.0 158.85 0.00 0.03 85 1008.5
20260509134250 58 301 2.0 0.0 158.85 0.00 0.03 86 1008.5
20260509133749 58 262 1.0 0.0 158.85 0.00 0.03 86 1008.7
20260509133249 58 308 2.0 0.0 158.85 0.00 0.03 86 1008.7
20260509133159 57 222 5.0 0.0 158.85 0.00 0.03 87 1008.7
20260509132750 57 222 5.0 0.0 158.85 0.00 0.03 87 1008.7
20260509132729 57 252 6.0 0.0 158.85 0.00 0.03 87 1008.6
20260509132250 57 252 6.0 0.0 158.85 0.00 0.03 87 1008.6
20260509132010 57 308 7.0 0.0 158.85 0.00 0.03 88 1008.5
20260509131749 57 308 7.0 0.0 158.85 0.00 0.03 88 1008.5
20260509131250 57 318 1.0 0.0 158.85 0.00 0.03 88 1008.5
20260509131141 57 270 2.0 0.0 158.85 0.00 0.03 89 1008.5
20260509130749 57 270 2.0 0.0 158.85 0.00 0.03 89 1008.5
20260509130549 56 264 1.0 0.0 158.85 0.00 0.03 89 1008.6
20260509130249 56 264 1.0 0.0 158.85 0.00 0.03 89 1008.6
20260509130035 56 274 1.0 0.0 158.85 0.00 0.03 89 1008.5
20260509125800 56 283 2.0 0.0 158.85 0.00 0.03 89 1008.5
20260509125750 56 274 1.0 0.0 158.85 0.00 0.03 89 1008.5
20260509125249 56 283 2.0 0.0 158.85 0.00 0.03 89 1008.5
20260509125057 56 249 0.0 0.0 158.85 0.00 0.03 89 1008.5
20260509124749 56 0 0.0 0.0 158.85 0.00 0.03 89 1008.6
20260509124250 56 249 0.0 0.0 158.85 0.00 0.03 89 1008.5
20260509124226 55 72 1.0 0.0 158.85 0.00 0.03 89 1008.7
20260509123749 55 72 1.0 0.0 158.85 0.00 0.03 89 1008.7
20260509123432 56 269 1.0 0.0 158.85 0.00 0.03 89 1008.8
20260509123249 56 269 1.0 0.0 158.85 0.00 0.03 89 1008.8
20260509122752 55 214 1.0 0.0 158.85 0.00 0.03 89 1008.7
20260509122250 55 160 2.0 0.0 158.85 0.00 0.03 89 1008.9
20260509121751 55 309 2.0 0.0 158.85 0.00 0.03 89 1008.9
20260509121250 55 194 2.0 0.0 158.85 0.00 0.03 89 1008.9
20260509120749 55 76 0.0 0.0 158.85 0.00 0.03 89 1008.8
20260509115749 55 243 1.0 0.0 158.85 0.00 0.03 89 1008.7
20260509115249 55 224 1.0 0.0 158.85 0.00 0.03 89 1008.7
20260509114749 55 326 2.0 0.0 158.85 0.00 0.03 89 1008.7
20260509114250 55 205 1.0 0.0 158.85 0.00 0.03 89 1008.5
20260509113749 55 274 4.0 0.0 158.85 0.00 0.03 89 1008.6
20260509113249 55 300 0.0 0.0 158.85 0.00 0.03 89 1008.5
20260509112749 55 256 2.0 0.0 158.85 0.00 0.03 89 1008.4
20260509112249 55 190 0.0 0.0 158.85 0.00 0.03 89 1008.4
20260509111749 55 297 2.0 0.0 158.85 0.00 0.03 88 1008.5
20260509111251 55 155 0.0 0.0 158.85 0.00 0.03 88 1008.5
20260509111119 55 198 1.0 0.0 158.85 0.00 0.03 88 1008.5
20260509110823 55 226 4.0 0.0 158.85 0.00 0.03 88 1008.5
20260509110749 55 198 1.0 0.0 158.85 0.00 0.03 88 1008.5
20260509110249 55 226 4.0 0.0 158.85 0.00 0.03 88 1008.5
20260509110224 55 179 1.0 0.0 158.85 0.00 0.03 88 1008.3
20260509105749 55 179 1.0 0.0 158.85 0.00 0.03 88 1008.3
20260509105626 55 174 2.0 0.0 158.85 0.00 0.03 88 1008.5
20260509105249 55 174 2.0 0.0 158.85 0.00 0.03 88 1008.5
20260509105149 55 271 3.0 0.0 158.85 0.00 0.03 88 1008.5
20260509104749 55 271 3.0 0.0 158.85 0.00 0.03 88 1008.5
20260509104251 55 285 5.0 0.0 158.85 0.00 0.03 88 1008.4
20260509103847 55 41 1.0 0.0 158.85 0.00 0.03 88 1008.2
20260509103750 55 41 1.0 0.0 158.85 0.00 0.03 88 1008.2
20260509103651 55 240 1.0 0.0 158.85 0.00 0.03 88 1008.3
20260509103250 55 240 1.0 0.0 158.85 0.00 0.03 88 1008.3
20260509102749 55 235 1.0 0.0 158.85 0.00 0.03 88 1008.3
20260509102651 55 180 2.0 0.0 158.85 0.00 0.03 88 1008.4
20260509102352 55 245 5.0 0.0 158.85 0.00 0.03 88 1008.4
20260509102249 55 180 2.0 0.0 158.85 0.00 0.03 88 1008.4
20260509101749 55 245 5.0 0.0 158.85 0.00 0.03 88 1008.4
20260509101426 55 233 4.0 0.0 158.85 0.00 0.03 89 1008.4
20260509101249 55 270 5.0 0.0 158.85 0.00 0.03 88 1008.4
20260509100749 55 233 4.0 0.0 158.85 0.00 0.03 89 1008.4
20260509100249 55 294 5.0 0.0 158.85 0.00 0.03 89 1008.5
20260509095749 55 210 4.0 0.0 158.85 0.00 0.03 89 1008.5
20260509095249 55 278 3.0 0.0 158.85 0.00 0.03 89 1008.4
20260509094749 55 281 7.0 0.0 158.85 0.00 0.03 89 1008.5
20260509094249 55 274 2.0 0.0 158.85 0.00 0.03 89 1008.5
20260509093749 55 280 3.0 0.0 158.85 0.00 0.03 89 1008.4
20260509093249 55 173 2.0 0.0 158.85 0.00 0.03 89 1008.4
20260509093200 55 253 0.0 0.0 158.85 0.00 0.03 89 1008.5
20260509092749 55 276 2.0 0.0 158.85 0.00 0.03 89 1008.4
20260509092249 55 253 0.0 0.0 158.85 0.00 0.03 89 1008.5
20260509091249 55 250 0.0 0.0 158.85 0.00 0.03 89 1008.6
20260509090749 55 273 3.0 0.0 158.85 0.00 0.03 89 1008.6
20260509090251 55 21 4.0 0.0 158.85 0.00 0.03 89 1008.6
20260509090023 55 103 0.0 0.0 158.85 0.00 0.03 89 1008.5
20260509085749 55 103 0.0 0.0 158.85 0.00 0.03 89 1008.5
20260509085249 55 314 1.0 0.0 158.85 0.00 0.03 89 1008.6
20260509084249 55 242 0.0 0.0 158.85 0.00 0.03 89 1008.6
20260509083749 55 187 0.0 0.0 158.85 0.00 0.03 89 1008.6
20260509083250 55 246 2.0 0.0 158.85 0.00 0.03 89 1008.6
20260509082749 55 270 0.0 0.0 158.85 0.00 0.03 89 1008.6
20260509082249 55 170 1.0 0.0 158.85 0.00 0.03 89 1008.7
20260509081749 55 266 0.0 0.0 158.85 0.00 0.03 89 1008.6
20260509081249 55 193 0.0 0.0 158.85 0.00 0.03 89 1008.7
20260509080749 55 285 3.0 0.0 158.85 0.00 0.03 89 1008.7
20260509080251 55 118 1.0 0.0 158.85 0.00 0.03 89 1008.9
20260509075749 55 186 3.0 0.0 158.85 0.00 0.03 89 1008.9
20260509075249 55 257 3.0 0.0 158.85 0.00 0.03 89 1009.0
20260509074749 55 217 0.0 0.0 158.85 0.00 0.03 89 1009.0
20260509074249 55 264 0.0 0.0 158.85 0.00 0.03 89 1009.0
20260509073749 55 177 0.0 0.0 158.85 0.00 0.03 89 1009.2
20260509072749 55 181 2.0 0.0 158.85 0.00 0.03 89 1009.2
20260509071749 55 283 4.0 0.0 158.85 0.00 0.03 89 1009.2
20260509071249 55 304 3.0 0.0 158.85 0.00 0.03 88 1009.2
20260509070750 55 291 1.0 0.0 158.85 0.00 0.03 88 1009.3
20260509070250 55 218 1.0 0.0 158.85 0.00 0.03 88 1009.3
20260509065749 55 172 0.0 0.0 158.85 0.00 0.03 88 1009.5
20260509065249 55 325 2.0 0.0 158.85 0.00 0.03 88 1009.5
20260509064749 55 248 4.0 0.0 158.85 0.00 0.03 88 1009.5
20260509064249 55 278 4.0 0.0 158.85 0.00 0.03 88 1009.5
20260509063249 56 323 3.0 0.0 158.84 0.00 0.02 87 1009.5
20260509062749 56 280 2.0 0.0 158.83 0.00 0.01 87 1009.6
20260509061749 56 242 5.0 0.0 158.83 0.00 0.01 87 1009.6
20260509061249 56 233 2.0 0.0 158.83 0.00 0.01 87 1009.7
20260509060749 56 201 1.0 0.0 158.83 0.00 0.01 87 1009.7
20260509060250 56 284 2.0 0.0 158.83 0.00 0.01 87 1009.7
20260509055249 56 263 2.0 0.0 158.82 0.00 0.00 87 1009.8
20260509054749 56 255 2.0 0.0 158.82 0.00 0.00 87 1009.9
20260509054249 55 287 3.0 0.0 158.82 0.00 0.00 87 1010.0
20260509053749 56 259 0.0 0.0 158.82 0.00 0.00 87 1009.9
20260509053657 56 308 1.0 0.0 158.82 0.00 0.00 87 1010.0
20260509053249 56 308 1.0 0.0 158.82 0.00 0.00 87 1010.0
20260509053234 55 236 3.0 0.0 158.82 0.00 0.00 87 1009.9
20260509052749 55 328 5.0 0.0 158.82 0.00 0.00 87 1010.0
20260509052249 55 236 3.0 0.0 158.82 0.00 0.00 87 1009.9
20260509051749 55 290 3.0 0.0 158.82 0.00 0.00 87 1009.9
20260509051249 55 255 5.0 0.0 158.82 0.00 0.00 87 1010.0
20260509050806 55 215 0.0 0.0 158.82 0.00 0.00 87 1010.1
20260509050751 55 55 1.0 0.0 158.82 0.00 0.00 87 1010.1
20260509050249 55 215 0.0 0.0 158.82 0.00 0.00 87 1010.1
20260509045749 55 44 0.0 0.0 158.82 0.00 0.00 87 1010.1
20260509045249 55 270 3.0 0.0 158.82 0.00 0.00 87 1010.1
20260509044748 55 235 3.0 0.0 158.82 0.00 0.00 87 1010.2
20260509043748 55 249 0.0 0.0 158.82 0.00 0.00 87 1010.1
20260509043248 55 290 3.0 0.0 158.82 0.00 0.04 87 1010.2
20260509042749 55 152 0.0 0.0 158.82 0.00 0.04 87 1010.1
20260509042248 55 256 1.0 0.0 158.82 0.00 0.04 87 1010.2
20260509041748 55 277 2.0 0.0 158.82 0.00 0.04 87 1010.4
20260509041249 55 242 2.0 0.0 158.82 0.00 0.04 87 1010.4
20260509040749 55 333 2.0 0.0 158.82 0.00 0.04 87 1010.5
20260509040248 55 131 0.0 0.0 158.82 0.00 0.04 87 1010.5
20260509035751 55 98 1.0 0.0 158.82 0.00 0.04 86 1010.6
20260509035248 56 294 2.0 0.0 158.82 0.00 0.04 86 1010.7
20260509034748 56 260 1.0 0.0 158.82 0.00 0.04 86 1010.8
20260509034249 56 215 2.0 0.0 158.81 0.00 0.03 86 1010.7
20260509033748 56 132 0.0 0.0 158.81 0.00 0.03 86 1010.8
20260509033248 56 201 0.0 0.0 158.81 0.00 0.03 86 1010.7
20260509032749 56 226 2.0 0.0 158.81 0.00 0.03 86 1010.9
20260509032249 56 297 2.0 0.0 158.80 0.00 0.02 86 1011.0
20260509031748 56 84 0.0 0.0 158.80 0.00 0.02 86 1011.1
20260509031249 56 84 0.0 0.0 158.80 0.00 0.02 86 1011.0
20260509030748 56 84 0.0 0.0 158.80 0.00 0.02 86 1011.0
20260509025749 56 84 0.0 0.0 158.80 0.00 0.02 86 1011.1
20260509025248 56 84 0.0 0.0 158.80 0.00 0.02 86 1010.9
20260509024748 56 70 0.0 0.0 158.80 0.00 0.02 86 1011.1
20260509024249 56 285 3.0 0.0 158.80 0.00 0.02 86 1011.2
20260509023749 56 195 2.0 0.0 158.80 0.00 0.02 86 1011.2
20260509023248 56 152 0.0 0.0 158.80 0.00 0.02 85 1011.3
20260509022749 56 152 0.0 0.0 158.80 0.00 0.02 85 1011.2
20260509022248 56 152 0.0 0.0 158.80 0.00 0.02 85 1011.3
20260509021748 56 152 0.0 0.0 158.79 0.00 0.01 85 1011.3
20260509021249 56 152 0.0 0.0 158.79 0.00 0.01 85 1011.2
20260509020748 57 152 0.0 0.0 158.79 0.00 0.01 85 1011.2
20260509020248 56 152 0.0 0.0 158.79 0.00 0.01 85 1011.2
20260509015749 57 152 0.0 0.0 158.79 0.00 0.01 84 1011.3
20260509015249 57 152 0.0 0.0 158.79 0.00 0.01 84 1011.2
20260509014748 57 152 0.0 0.0 158.79 0.00 0.01 84 1011.1
20260509014249 57 152 0.0 0.0 158.79 0.00 0.01 84 1011.2
20260509013748 57 152 0.0 0.0 158.79 0.00 0.01 84 1011.0
20260509013248 57 152 0.0 0.0 158.79 0.00 0.01 83 1011.0
20260509012749 57 152 0.0 0.0 158.79 0.00 0.01 83 1010.9
20260509012248 57 152 0.0 0.0 158.79 0.00 0.01 83 1010.9
20260509011748 57 152 0.0 0.0 158.79 0.00 0.01 82 1010.9
20260509011249 57 152 0.0 0.0 158.79 0.00 0.01 82 1011.0
20260509010748 58 152 0.0 0.0 158.79 0.00 0.01 82 1011.0
20260509010248 58 152 0.0 0.0 158.79 0.00 0.01 81 1010.9
20260509005749 58 152 0.0 0.0 158.79 0.00 0.01 81 1011.0
20260509005248 58 152 0.0 0.0 158.79 0.00 0.01 81 1011.0
20260509004806 58 152 0.0 0.0 158.79 0.00 0.01 80 1010.9
20260509004250 58 152 0.0 0.0 158.79 0.00 0.01 80 1011.1
20260509003748 58 152 0.0 0.0 158.79 0.00 0.01 80 1010.9
20260509003350 58 152 0.0 0.0 158.79 0.00 0.01 79 1010.8
20260509003248 58 152 0.0 0.0 158.79 0.00 0.01 79 1010.8
20260509002909 59 152 0.0 0.0 158.79 0.00 0.01 78 1010.7
20260509002749 58 152 0.0 0.0 158.79 0.00 0.01 79 1010.8
20260509002248 59 152 0.0 0.0 158.79 0.00 0.01 78 1010.7
20260509001748 59 152 0.0 0.0 158.79 0.00 0.01 77 1010.7
20260509001249 59 152 0.0 0.0 158.79 0.00 0.01 76 1010.6
20260509000748 59 152 0.0 0.0 158.78 0.00 0.00 75 1010.7
20260509000248 59 152 0.0 0.0 158.78 0.00 0.00 75 1010.6
20260508235749 59 152 0.0 0.0 158.78 0.00 0.00 74 1010.6
20260508235320 59 152 0.0 0.0 158.78 0.00 0.00 73 1010.5
20260508235248 59 152 0.0 0.0 158.78 0.00 0.00 73 1010.5
20260508234748 59 48 0.0 0.0 158.78 0.00 0.00 72 1010.4
20260508233748 60 28 0.0 0.0 158.78 0.00 0.00 70 1010.3
20260508233324 61 308 0.0 0.0 158.78 0.00 0.00 66 1010.4
20260508233248 60 353 0.0 0.0 158.78 0.00 0.00 70 1010.3
20260508232748 60 345 2.0 0.0 158.78 0.00 0.00 69 1010.3
20260508232248 60 7 0.0 0.0 158.78 0.00 0.00 68 1010.3
20260508231749 61 1 1.0 0.0 158.78 0.00 0.00 67 1010.4
20260508231248 61 308 0.0 0.0 158.78 0.00 0.00 66 1010.4
20260508230748 62 80 4.0 0.0 158.78 0.00 0.00 62 1010.5
20260508230248 62 274 6.0 0.0 158.78 0.00 0.00 57 1010.6
20260508225748 63 309 7.0 0.0 158.78 0.00 0.00 54 1010.6
20260508225441 63 250 1.0 0.0 158.78 0.00 0.00 53 1010.4
20260508225248 63 287 3.0 0.0 158.78 0.00 0.00 53 1010.6
20260508224748 63 250 1.0 0.0 158.78 0.00 0.00 53 1010.4
20260508224248 63 283 3.0 0.0 158.78 0.00 0.00 52 1010.3
20260508223829 64 293 6.0 0.0 158.78 0.00 0.00 51 1010.4
20260508223748 63 242 0.0 0.0 158.78 0.00 0.00 51 1010.4
20260508223248 64 293 6.0 0.0 158.78 0.00 0.00 51 1010.4
20260508222957 64 342 2.0 0.0 158.78 0.00 0.00 49 1010.4
20260508222748 64 333 4.0 0.0 158.78 0.00 0.00 50 1010.4
20260508222248 64 342 2.0 0.0 158.78 0.00 0.00 49 1010.4
20260508221749 65 6 3.0 0.0 158.78 0.00 0.00 48 1010.2
20260508221248 65 318 2.0 0.0 158.78 0.00 0.00 47 1010.3
20260508220748 65 291 2.0 0.0 158.78 0.00 0.00 46 1010.3
20260508220327 66 359 5.0 0.0 158.78 0.00 0.00 43 1010.1
20260508220248 65 293 5.0 0.0 158.78 0.00 0.00 44 1010.3
20260508215749 66 359 5.0 0.0 158.78 0.00 0.00 43 1010.1
20260508215310 66 266 3.0 0.0 158.78 0.00 0.00 43 1009.9
20260508215249 66 300 11.0 0.0 158.78 0.00 0.00 42 1010.0
20260508214749 66 266 3.0 0.0 158.78 0.00 0.00 43 1009.9
20260508214250 66 267 7.0 0.0 158.78 0.00 0.00 42 1010.0
20260508213906 67 273 5.0 0.0 158.78 0.00 0.00 43 1009.9
20260508213749 67 307 11.0 0.0 158.78 0.00 0.00 39 1009.9
20260508213546 67 262 7.0 0.0 158.78 0.00 0.00 41 1010.0
20260508212749 67 273 5.0 0.0 158.78 0.00 0.00 43 1009.9
20260508212248 67 262 7.0 0.0 158.78 0.00 0.00 41 1010.0
20260508211748 67 308 5.0 0.0 158.78 0.00 0.00 39 1009.9
20260508211536 67 298 6.0 0.0 158.78 0.00 0.00 38 1010.0
20260508210748 67 298 6.0 0.0 158.78 0.00 0.00 38 1010.0
20260508210248 67 255 15.0 0.0 158.78 0.00 0.00 41 1010.0
20260508205749 67 274 13.0 0.0 158.78 0.00 0.00 40 1010.0
20260508205249 67 219 11.0 0.0 158.78 0.00 0.00 43 1010.0
20260508204748 67 211 3.0 0.0 158.78 0.00 0.00 42 1010.0
20260508204251 67 295 8.0 0.0 158.78 0.00 0.00 41 1010.1
20260508203748 67 229 10.0 0.0 158.78 0.00 0.00 42 1010.1
20260508202748 66 245 4.0 0.0 158.78 0.00 0.00 43 1010.2
20260508202250 66 304 8.0 0.0 158.78 0.00 0.00 43 1010.4
20260508200748 66 255 7.0 0.0 158.78 0.00 0.00 43 1010.6
20260508200629 66 221 3.0 0.0 158.78 0.00 0.00 44 1010.7
20260508195748 66 221 3.0 0.0 158.78 0.00 0.00 44 1010.7
20260508195403 66 255 14.0 0.0 158.78 0.00 0.00 41 1010.9
20260508195248 66 319 6.0 0.0 158.78 0.00 0.00 43 1010.8
20260508194748 66 347 2.0 0.0 158.78 0.00 0.00 43 1010.8
20260508194248 66 255 14.0 0.0 158.78 0.00 0.00 41 1010.9
20260508194038 66 300 7.0 0.0 158.78 0.00 0.00 43 1011.0
20260508193748 66 300 7.0 0.0 158.78 0.00 0.00 43 1011.0
20260508193249 66 290 3.0 0.0 158.78 0.00 0.00 45 1010.9
20260508192750 66 108 3.0 0.0 158.78 0.00 0.00 46 1011.0
20260508190749 67 308 3.0 0.0 158.78 0.00 0.00 44 1011.3
20260508190249 67 281 3.0 0.0 158.78 0.00 0.00 44 1011.3
20260508185749 68 197 1.0 0.0 158.78 0.00 0.00 44 1011.3
20260508185250 68 211 2.0 0.0 158.78 0.00 0.00 43 1011.4
20260508184749 68 257 2.0 0.0 158.78 0.00 0.00 43 1011.4
20260508184250 69 325 3.0 0.0 158.78 0.00 0.00 43 1011.4
20260508183748 69 259 2.0 0.0 158.78 0.00 0.00 41 1011.4
20260508180749 67 338 2.0 0.0 158.78 0.00 0.00 47 1011.9
20260508180249 66 281 6.0 0.0 158.78 0.00 0.00 47 1012.2
20260508180212 64 87 0.0 0.0 158.78 0.00 0.00 50 1012.6
20260508175748 65 248 4.0 0.0 158.78 0.00 0.00 53 1012.3
20260508175248 64 15 0.0 0.0 158.78 0.00 0.00 52 1012.6
20260508174748 64 87 0.0 0.0 158.78 0.00 0.00 50 1012.6
20260508174248 64 14 1.0 0.0 158.78 0.00 0.00 49 1012.8
20260508173748 65 311 5.0 0.0 158.78 0.00 0.00 49 1012.9
20260508173249 65 346 2.0 0.0 158.78 0.00 0.00 50 1013.0
20260508173212 64 300 7.0 0.0 158.78 0.00 0.00 50 1013.3
20260508172248 64 300 7.0 0.0 158.78 0.00 0.00 50 1013.3
20260508171748 64 309 2.0 0.0 158.78 0.00 0.00 52 1013.3
20260508171248 64 31 3.0 0.0 158.78 0.00 0.00 51 1013.4
20260508170748 63 315 1.0 0.0 158.78 0.00 0.00 53 1013.5
20260508165248 62 295 3.0 0.0 158.78 0.00 0.00 51 1014.0
20260508165240 62 339 3.0 0.0 158.78 0.00 0.00 52 1013.9